[[{"header":{"parameterUnit":"m.s-1","parameterCategory":2,"la1":30.2991,"la2":30.254,"lo1":-89.0895,"lo2":-89.0444,"dy":0.0017,"dx":0.0017,"nx":28,"ny":28,"refTime":"2024-04-27T21:00:00:Z","depth":"0","parameterNumber":2,"parameterNumberName":"U-component_of_CURRENTS"},"data":[0,0,0,0,0,0,0,0,0,0,0,0,0,0,0,0,0,0,0,0,0,0,0,0,0,0,0,0,0,0,0,0,0,0,0,0,0,0,0,0,0,0,0,0,0,0,0,0,0,0,0,0,0,0,0,0,0,0,-0.276,-0.2761,0,-0.2809,-0.2809,-0.281,-0.2779,-0.2777,-0.2776,-0.2775,-0.2735,-0.2735,-0.2735,0,0,0,0,0,0,0,0,0,0,0,0,0,-0.2654,-0.2656,-0.276,-0.2761,-0.2762,-0.2809,-0.2809,-0.281,-0.2779,-0.2777,-0.2776,-0.2775,-0.2735,-0.2735,-0.2735,0,0,0,0,0,0,0,0,0,0,0,0,0,-0.2698,-0.2656,-0.276,-0.2755,-0.2755,-0.2809,-0.2809,-0.281,-0.2779,-0.2777,-0.2776,-0.2774,-0.2735,-0.2735,-0.2735,-0.2769,0,0,-0.2735,-0.2735,0,0,0,0,0,0,0,0,-0.2696,-0.2702,-0.2754,-0.2755,-0.2755,-0.2789,-0.2757,-0.2793,-0.278,-0.2767,-0.2775,-0.2773,-0.2748,-0.2747,-0.2756,-0.2767,-0.2766,-0.2735,-0.2735,-0.2735,-0.2735,0,0,0,0,0,0,0,-0.2693,-0.27,-0.2776,-0.2756,-0.2756,-0.2755,-0.2758,-0.2764,-0.2762,-0.2768,-0.2766,-0.2777,-0.2747,-0.2757,-0.2755,-0.2765,-0.2735,-0.2735,-0.2735,-0.2735,-0.2851,-0.2854,0,0,0,0,0,0,-0.2695,-0.2697,-0.2775,-0.2778,-0.2724,-0.2758,-0.2762,-0.2777,-0.2764,-0.2762,-0.2779,-0.2776,-0.2757,-0.2755,-0.2753,-0.2803,-0.2735,-0.2735,-0.2735,-0.2848,-0.2851,-0.2855,0,0,0,0,0,0,-0.2692,-0.2701,-0.2773,-0.274,-0.275,-0.2762,-0.2779,-0.2779,-0.2783,-0.2774,-0.2769,-0.2781,-0.2756,-0.2753,-0.2779,-0.2801,-0.2735,-0.2735,-0.2844,-0.2849,-0.2853,-0.2897,0,0,0,0,0,0,-0.2689,-0.27,-0.2707,-0.2741,-0.2752,-0.2813,-0.2781,-0.2781,-0.2794,-0.279,-0.2775,-0.277,-0.2754,-0.278,-0.2779,-0.28,-0.2735,-0.284,-0.2846,-0.2852,-0.2891,-0.2902,-0.2912,0,0,0,0,0,-0.2685,-0.2705,-0.2707,-0.2717,-0.2763,-0.2815,-0.2821,-0.2821,-0.2796,-0.2813,-0.2811,-0.277,-0.2816,-0.2782,-0.2781,-0.2802,-0.2837,-0.2844,-0.2851,-0.2887,-0.29,-0.2911,0,0,0,0,0,0,-0.2659,-0.2706,-0.2708,-0.2739,-0.2778,-0.2811,-0.2824,-0.2825,-0.2838,-0.2827,-0.2804,-0.2802,-0.2835,-0.2827,-0.279,-0.286,-0.2822,-0.2829,-0.285,-0.2863,-0.2872,-0.2868,-0.2735,0,0,0,0,0,-0.2661,-0.2684,-0.2733,-0.2756,-0.2778,-0.28,-0.2817,-0.2826,-0.2845,-0.2847,-0.2842,-0.2848,-0.2868,-0.2869,-0.2886,-0.2918,-0.2894,-0.2938,-0.2948,-0.2956,-0.2958,-0.2947,-0.2955,-0.2878,-0.2877,-0.2877,0,0,-0.2653,-0.2684,-0.2694,-0.2752,-0.2775,-0.2829,-0.2805,-0.2842,-0.288,-0.2842,-0.288,-0.2881,-0.2889,-0.293,-0.2943,-0.2918,-0.2971,-0.2965,-0.2971,-0.2968,-0.2955,-0.2962,-0.2968,-0.2882,-0.2881,-0.2881,0,0,-0.2669,-0.2684,-0.2718,-0.2761,-0.2814,-0.284,-0.2853,-0.2897,-0.2908,-0.2956,-0.2942,-0.2959,-0.2987,-0.2998,-0.3005,-0.3086,-0.3028,-0.3095,-0.313,-0.312,-0.3125,-0.3129,-0.3114,-0.3116,-0.3094,-0.3094,-0.3094,0,-0.2656,-0.2711,-0.2736,-0.2793,-0.2827,-0.2849,-0.2903,-0.2935,-0.298,-0.2992,-0.2975,-0.3023,-0.3021,-0.3066,-0.3098,-0.3103,-0.3085,-0.3072,-0.3128,-0.3131,-0.3134,-0.3118,-0.312,-0.3097,-0.3097,-0.3097,-0.3096,0,-0.2712,-0.2756,-0.2782,-0.2858,-0.2903,-0.295,-0.3008,-0.3042,-0.3049,-0.3071,-0.3111,-0.3118,-0.3135,-0.315,-0.3145,-0.3181,-0.3157,-0.3139,-0.3081,-0.3143,-0.3124,-0.3125,-0.3102,-0.31,-0.31,-0.3099,0,0,-0.2665,-0.2794,-0.2797,-0.2846,-0.2938,-0.2979,-0.3052,-0.3116,-0.3145,-0.3177,-0.3207,-0.3247,-0.3224,-0.3235,-0.3228,-0.3226,-0.3235,-0.3193,-0.3191,-0.3152,-0.3206,-0.3173,-0.317,-0.3213,-0.3214,-0.3214,-0.3184,0,-0.2692,-0.2796,-0.2859,-0.2951,-0.3009,-0.3064,-0.3131,-0.3188,-0.3218,-0.3256,-0.3259,-0.3285,-0.3266,-0.3263,-0.3264,-0.3246,-0.3239,-0.3244,-0.3176,-0.3174,-0.3114,-0.3171,-0.3081,-0.3046,-0.3185,-0.3185,-0.3185,0,-0.2718,-0.2785,-0.288,-0.2998,-0.3026,-0.3079,-0.316,-0.3225,-0.3288,-0.331,-0.3328,-0.3329,-0.3347,-0.3312,-0.3295,-0.3296,-0.3258,-0.3236,-0.3233,-0.3184,-0.3143,-0.3009,-0.3041,-0.3039,-0.3185,-0.3185,-0.3185,0,-0.266,-0.2794,-0.2862,-0.2905,-0.3045,-0.3077,-0.3133,-0.3213,-0.3261,-0.3321,-0.3346,-0.3368,-0.3363,-0.3337,-0.3302,-0.3291,-0.3271,-0.3245,-0.318,-0.3177,-0.3079,-0.3067,-0.3075,-0.3224,-0.3224,-0.3224,-0.3224,0,-0.266,-0.2709,-0.2831,-0.2866,-0.2932,-0.3035,-0.3092,-0.3159,-0.3241,-0.3289,-0.3343,-0.3371,-0.3366,-0.3358,-0.3318,-0.3257,-0.3277,-0.3195,-0.3171,-0.3096,-0.3086,-0.3062,-0.3066,-0.3223,-0.3223,-0.3223,-0.3223,0,-0.2584,-0.2676,-0.275,-0.2873,-0.2908,-0.2936,-0.3052,-0.3096,-0.3189,-0.3249,-0.3266,-0.3357,-0.3348,-0.3341,-0.3302,-0.3265,-0.3172,-0.3188,-0.3104,-0.3071,-0.3002,-0.3012,-0.2962,-0.2881,-0.3108,-0.3107,-0.3106,0,-0.2558,-0.2589,-0.2707,-0.2737,-0.2782,-0.2849,-0.2901,-0.3033,-0.3082,-0.3231,-0.3246,-0.3292,-0.331,-0.3273,-0.3215,-0.3149,-0.3116,-0.303,-0.2999,-0.2999,-0.2992,-0.2984,-0.2918,-0.2887,-0.2885,-0.2883,-0.2881,0,-0.2479,-0.2512,-0.2565,-0.2626,-0.2676,-0.2744,-0.2818,-0.2865,-0.3021,-0.309,-0.3183,-0.3221,-0.3227,-0.3159,-0.3097,-0.3025,-0.2972,-0.2985,-0.3,-0.2841,-0.2816,-0.2725,-0.2914,-0.2863,-0.2865,-0.2866,-0.2867,-0.2868,-0.2383,-0.2388,-0.245,-0.2495,-0.2557,-0.2603,-0.2598,-0.2716,-0.2789,-0.2873,-0.3017,-0.3057,-0.3101,-0.3008,-0.296,-0.2845,-0.2832,-0.276,-0.2776,-0.2774,-0.2684,-0.2843,-0.276,-0.2762,-0.2763,-0.2764,-0.2764,0,-0.2262,-0.2284,-0.2319,-0.2364,-0.2364,-0.2445,-0.2515,-0.2493,-0.2526,-0.2689,-0.2752,-0.2867,-0.2827,-0.2856,-0.2796,-0.2694,-0.2603,-0.2608,-0.2576,-0.2518,-0.2665,-0.2646,-0.2517,-0.2517,-0.2517,-0.2517,-0.2517,-0.2517,-0.2195,-0.218,-0.2203,-0.2153,-0.2173,-0.2112,-0.2109,-0.2124,-0.2197,-0.2283,-0.2407,-0.2562,-0.2623,-0.2868,-0.2779,-0.2645,-0.2552,-0.2463,-0.2464,-0.2595,-0.2611,-0.2626,-0.2611,-0.2476,-0.2476,-0.2243,-0.2242,-0.224]},{"header":{"parameterUnit":"m.s-1","parameterCategory":2,"la1":30.2991,"la2":30.254,"lo1":-89.0895,"lo2":-89.0444,"dy":0.0017,"dx":0.0017,"nx":28,"ny":28,"refTime":"2024-04-27T21:00:00:Z","depth":"0","parameterNumber":3,"parameterNumberName":"V-component_of_CURRENTS"},"data":[0,0,0,0,0,0,0,0,0,0,0,0,0,0,0,0,0,0,0,0,0,0,0,0,0,0,0,0,0,0,0,0,0,0,0,0,0,0,0,0,0,0,0,0,0,0,0,0,0,0,0,0,0,0,0,0,0,0,-0.0115,-0.0114,0,0.0007,0.0009,0.0011,0.0087,0.0087,0.0088,0.0088,0.025,0.0254,0.0258,0,0,0,0,0,0,0,0,0,0,0,0,0,-0.0204,-0.0203,-0.0115,-0.0113,-0.0112,0.0007,0.0009,0.0011,0.0087,0.0087,0.0088,0.0088,0.0249,0.0253,0.0258,0,0,0,0,0,0,0,0,0,0,0,0,0,-0.013,-0.0203,-0.0115,-0.0061,-0.0055,0.0007,0.0009,0.0011,0.0087,0.0087,0.0088,0.0088,0.0247,0.0253,0.0259,0.029,0,0,0.0278,0.0281,0,0,0,0,0,0,0,0,-0.0135,-0.0127,-0.007,-0.0065,-0.0058,0.0031,0.0037,0.0106,0.0087,0.0035,0.0088,0.0088,0.0179,0.019,0.0215,0.0298,0.0305,0.0278,0.0282,0.0285,0.0287,0,0,0,0,0,0,0,-0.014,-0.0131,-0.0064,-0.0069,-0.0062,-0.0017,-0.0006,0.0051,0.0106,0.004,0.0045,0.0055,0.0183,0.0209,0.022,0.0307,0.0278,0.0284,0.0287,0.029,0.0451,0.0452,0,0,0,0,0,0,-0.0164,-0.0137,-0.0068,-0.0061,-0.0099,-0.0016,-0.0004,0.0003,0.0105,0.0119,0.0055,0.0058,0.0198,0.0212,0.0226,0.0272,0.0285,0.029,0.0294,0.0451,0.0451,0.0452,0,0,0,0,0,0,-0.0166,-0.0159,-0.0073,-0.0097,-0.0084,-0.0016,-0.0007,0.0006,0.003,0.0115,0.0131,0.0065,0.0199,0.0217,0.0277,0.0278,0.0293,0.0299,0.045,0.0451,0.0452,0.0361,0,0,0,0,0,0,-0.0169,-0.0161,-0.0166,-0.0099,-0.0083,-0.0047,-0.0007,0.0008,0.0035,0.0041,0.013,0.0145,0.0201,0.0268,0.0283,0.0287,0.0304,0.0449,0.045,0.0451,0.0364,0.0359,0.0355,0,0,0,0,0,-0.0173,-0.0185,-0.0167,-0.0159,-0.0092,-0.0048,-0.0036,0.0016,0.0034,0.004,0.0106,0.0142,0.0286,0.0273,0.0291,0.0297,0.0449,0.045,0.0451,0.0365,0.036,0.0355,0,0,0,0,0,0,-0.0228,-0.0177,-0.0156,-0.0152,-0.0109,-0.0036,-0.0029,0.0007,0.0064,0.0069,0.015,0.017,0.0222,0.0275,0.0258,0.0349,0.0374,0.0379,0.0302,0.0298,0.0294,0.0277,0.0309,0,0,0,0,0,-0.0244,-0.0241,-0.0181,-0.018,-0.0163,-0.0098,-0.0075,-0.004,0.0019,0.0044,0.0108,0.0179,0.0243,0.028,0.0341,0.039,0.044,0.0408,0.0403,0.0399,0.04,0.0479,0.0481,0.0456,0.0456,0.0456,0,0,-0.0265,-0.0238,-0.0236,-0.0191,-0.0154,-0.0136,-0.0083,-0.0057,-0.0034,0.0053,0.0099,0.0162,0.0252,0.0306,0.0335,0.035,0.043,0.0401,0.0397,0.04,0.048,0.0482,0.0484,0.0457,0.0457,0.0457,0,0,-0.0312,-0.0283,-0.0297,-0.0264,-0.0218,-0.0173,-0.0171,-0.0102,-0.0066,-0.0014,0.0055,0.012,0.0213,0.0282,0.0328,0.034,0.04,0.0358,0.0329,0.0405,0.0407,0.041,0.0457,0.0465,0.0361,0.0361,0.0361,0,-0.0343,-0.0346,-0.0294,-0.0294,-0.0273,-0.0197,-0.02,-0.0148,-0.0067,-0.0033,-0.0014,0.0137,0.0204,0.0289,0.0294,0.033,0.0373,0.0335,0.0397,0.0401,0.0405,0.0454,0.0463,0.0357,0.0357,0.0358,0.0358,0,-0.0392,-0.0392,-0.0397,-0.0369,-0.0339,-0.033,-0.0254,-0.0218,-0.0166,-0.0104,-0.002,0.0079,0.0171,0.0203,0.0253,0.0322,0.0341,0.0374,0.0401,0.0402,0.0453,0.0465,0.0351,0.0352,0.0354,0.0355,0,0,-0.0462,-0.0441,-0.044,-0.0444,-0.0379,-0.0362,-0.032,-0.0254,-0.0223,-0.0134,-0.0081,0.0034,0.0093,0.0151,0.0227,0.0297,0.0356,0.034,0.0346,0.0371,0.0504,0.0558,0.0577,0.0398,0.04,0.0401,0.052,0,-0.0516,-0.0555,-0.0509,-0.0523,-0.0535,-0.0446,-0.0411,-0.0337,-0.0259,-0.0186,-0.0065,0.0011,0.0074,0.0115,0.0196,0.0325,0.0386,0.032,0.0515,0.052,0.0556,0.0593,0.0655,0.077,0.0531,0.0533,0.0535,0,-0.0574,-0.0594,-0.0634,-0.061,-0.0602,-0.0586,-0.0515,-0.0473,-0.0341,-0.0277,-0.017,-0.0069,0.0059,0.0102,0.0314,0.0268,0.0371,0.0465,0.0472,0.0566,0.0598,0.0739,0.0801,0.1009,0.0553,0.0552,0.0551,0,-0.0664,-0.0671,-0.0714,-0.0705,-0.0664,-0.0651,-0.0617,-0.0507,-0.0468,-0.0334,-0.0284,-0.0115,-0.003,0.0133,0.0336,0.0324,0.0564,0.0574,0.0717,0.0721,0.0836,0.0847,0.1115,0.0708,0.0708,0.0707,0.0707,0,-0.0737,-0.0764,-0.0765,-0.0784,-0.0816,-0.0747,-0.0737,-0.0668,-0.0566,-0.0517,-0.0345,-0.026,-0.0018,0.0157,0.0325,0.057,0.0561,0.0724,0.0768,0.0805,0.0812,0.1048,0.1114,0.0712,0.0711,0.071,0.0709,0,-0.082,-0.0821,-0.0869,-0.0861,-0.0862,-0.0884,-0.0837,-0.0821,-0.0707,-0.0637,-0.0599,-0.0364,-0.0121,0.0128,0.0408,0.0557,0.0911,0.0859,0.0875,0.0919,0.1234,0.1289,0.1568,0.167,0.1033,0.1035,0.1037,0,-0.0867,-0.0907,-0.0947,-0.0984,-0.0983,-0.1001,-0.1007,-0.0912,-0.0877,-0.0693,-0.0659,-0.041,-0.0198,0.0247,0.0572,0.0897,0.1025,0.1104,0.11,0.1281,0.1377,0.1404,0.1471,0.1209,0.1212,0.1215,0.1217,0,-0.0949,-0.0962,-0.1005,-0.11,-0.1132,-0.1157,-0.1146,-0.1139,-0.101,-0.0911,-0.0721,-0.0536,-0.0066,0.0379,0.0803,0.0984,0.1264,0.1165,0.1375,0.1562,0.1591,0.17,0.1073,0.124,0.1237,0.1236,0.1234,0.1234,-0.0999,-0.1059,-0.1127,-0.1207,-0.1255,-0.1289,-0.1303,-0.1253,-0.1187,-0.1005,-0.0789,-0.046,0.0213,0.0857,0.1084,0.1569,0.1476,0.1689,0.1745,0.1759,0.1865,0.1272,0.1474,0.1473,0.1473,0.1472,0.1471,0,-0.1062,-0.1135,-0.1228,-0.1317,-0.1388,-0.1379,-0.1377,-0.1354,-0.1278,-0.1028,-0.0789,-0.0031,0.062,0.12,0.1921,0.2159,0.2188,0.2248,0.2326,0.2367,0.1886,0.1903,0.2183,0.2183,0.2182,0.2182,0.2182,0.2182,-0.1098,-0.121,-0.1267,-0.1412,-0.1468,-0.152,-0.1515,-0.1449,-0.1271,-0.0855,-0.0424,-0.0029,0.0834,0.204,0.2692,0.2717,0.2912,0.2865,0.2956,0.2653,0.2605,0.256,0.2597,0.3018,0.3019,0.3434,0.3438,0.3441]}],[{"header":{"parameterUnit":"m.s-1","parameterCategory":2,"la1":30.2991,"la2":30.254,"lo1":-89.0895,"lo2":-89.0444,"dy":0.0017,"dx":0.0017,"nx":28,"ny":28,"refTime":"2024-04-27T21:00:00:Z","depth":"2","parameterNumber":2,"parameterNumberName":"U-component_of_CURRENTS"},"data":[0,0,0,0,0,0,0,0,0,0,0,0,0,0,0,0,0,0,0,0,0,0,0,0,0,0,0,0,0,0,0,0,0,0,0,0,0,0,0,0,0,0,0,0,0,0,0,0,0,0,0,0,0,0,0,0,0,0,-0.2654,-0.2655,0,-0.2699,-0.2699,-0.27,-0.2672,-0.2671,-0.267,-0.2669,-0.2627,-0.2627,-0.2627,0,0,0,0,0,0,0,0,0,0,0,0,0,-0.2553,-0.2555,-0.2654,-0.2655,-0.2655,-0.2699,-0.2699,-0.27,-0.2672,-0.2671,-0.2669,-0.2668,-0.2627,-0.2627,-0.2627,0,0,0,0,0,0,0,0,0,0,0,0,0,-0.2594,-0.2555,-0.2654,-0.2649,-0.2649,-0.2699,-0.2699,-0.27,-0.2672,-0.267,-0.2669,-0.2668,-0.2628,-0.2627,-0.2627,-0.2657,0,0,-0.2627,-0.2626,0,0,0,0,0,0,0,0,-0.2592,-0.2598,-0.2649,-0.265,-0.265,-0.2681,-0.2649,-0.2682,-0.2672,-0.266,-0.2669,-0.2667,-0.2641,-0.2639,-0.2648,-0.2655,-0.2653,-0.2627,-0.2626,-0.2626,-0.2626,0,0,0,0,0,0,0,-0.2589,-0.2596,-0.2668,-0.265,-0.2651,-0.2649,-0.2652,-0.2655,-0.2654,-0.2661,-0.266,-0.2671,-0.2639,-0.2648,-0.2646,-0.2653,-0.2627,-0.2626,-0.2626,-0.2626,-0.2731,-0.2733,0,0,0,0,0,0,-0.2592,-0.2593,-0.2667,-0.267,-0.262,-0.2652,-0.2656,-0.267,-0.2656,-0.2654,-0.2672,-0.2669,-0.2649,-0.2647,-0.2645,-0.2693,-0.2626,-0.2626,-0.2626,-0.2728,-0.2731,-0.2734,0,0,0,0,0,0,-0.2589,-0.2598,-0.2665,-0.2635,-0.2643,-0.2655,-0.2671,-0.2672,-0.2677,-0.2666,-0.2661,-0.2676,-0.2648,-0.2645,-0.2669,-0.269,-0.2626,-0.2626,-0.2724,-0.2729,-0.2733,-0.278,0,0,0,0,0,0,-0.2586,-0.2597,-0.2604,-0.2635,-0.2645,-0.2704,-0.2673,-0.2674,-0.2687,-0.2684,-0.2668,-0.2663,-0.2647,-0.2669,-0.2668,-0.2689,-0.2626,-0.2721,-0.2726,-0.2731,-0.2775,-0.2785,-0.2795,0,0,0,0,0,-0.2583,-0.2602,-0.2604,-0.2613,-0.2657,-0.2705,-0.2711,-0.2711,-0.2689,-0.2705,-0.2703,-0.2663,-0.2703,-0.2672,-0.267,-0.269,-0.2718,-0.2725,-0.2731,-0.277,-0.2783,-0.2794,0,0,0,0,0,0,-0.2559,-0.2603,-0.2605,-0.2635,-0.2672,-0.2702,-0.2715,-0.2716,-0.2728,-0.2718,-0.2696,-0.2693,-0.2724,-0.2714,-0.268,-0.2744,-0.2706,-0.2713,-0.2737,-0.2749,-0.2759,-0.2755,-0.2626,0,0,0,0,0,-0.2561,-0.2583,-0.2629,-0.2651,-0.2672,-0.2693,-0.2709,-0.2718,-0.2735,-0.2737,-0.2732,-0.2736,-0.2754,-0.2754,-0.2769,-0.2798,-0.2774,-0.2816,-0.2826,-0.2834,-0.2836,-0.2825,-0.2833,-0.2756,-0.2756,-0.2756,0,0,-0.2554,-0.2583,-0.2593,-0.2648,-0.267,-0.2719,-0.2698,-0.2733,-0.2769,-0.2732,-0.2769,-0.2768,-0.2773,-0.2811,-0.2824,-0.2799,-0.2849,-0.2842,-0.2848,-0.2846,-0.2833,-0.2839,-0.2846,-0.276,-0.2759,-0.2759,0,0,-0.2569,-0.2584,-0.2617,-0.2657,-0.2707,-0.2731,-0.2744,-0.2786,-0.2797,-0.2842,-0.2828,-0.2844,-0.2868,-0.2877,-0.2883,-0.296,-0.2905,-0.2969,-0.3004,-0.2994,-0.2999,-0.3003,-0.299,-0.2992,-0.2968,-0.2968,-0.2968,0,-0.2557,-0.2608,-0.2633,-0.2686,-0.2719,-0.274,-0.279,-0.2821,-0.2864,-0.2875,-0.2861,-0.2905,-0.2901,-0.2943,-0.2974,-0.2977,-0.2961,-0.2948,-0.3002,-0.3005,-0.3008,-0.2994,-0.2995,-0.2971,-0.2971,-0.297,-0.297,0,-0.2609,-0.2651,-0.2675,-0.2747,-0.2789,-0.2833,-0.2888,-0.2921,-0.293,-0.295,-0.299,-0.2995,-0.3011,-0.3025,-0.302,-0.3055,-0.3033,-0.3013,-0.2958,-0.3018,-0.3,-0.3001,-0.2975,-0.2974,-0.2973,-0.2973,0,0,-0.2565,-0.2687,-0.2689,-0.2735,-0.2822,-0.286,-0.293,-0.299,-0.3018,-0.305,-0.308,-0.3117,-0.3098,-0.3107,-0.31,-0.3099,-0.311,-0.3069,-0.3067,-0.3031,-0.3085,-0.305,-0.3047,-0.309,-0.3091,-0.3091,-0.3064,0,-0.259,-0.2687,-0.2746,-0.2832,-0.2885,-0.2939,-0.3002,-0.3056,-0.3086,-0.3123,-0.3127,-0.3154,-0.3137,-0.3137,-0.3138,-0.3121,-0.3115,-0.3119,-0.3053,-0.3051,-0.2992,-0.3048,-0.279,-0.2742,-0.3064,-0.3064,-0.3064,0,-0.2613,-0.2676,-0.2764,-0.2875,-0.2901,-0.2951,-0.3029,-0.309,-0.3152,-0.3175,-0.3195,-0.3198,-0.3216,-0.3185,-0.317,-0.3171,-0.3135,-0.3114,-0.3112,-0.306,-0.3019,-0.2736,-0.2731,-0.3065,-0.3065,-0.3065,-0.3065,0,-0.2556,-0.2682,-0.2745,-0.2785,-0.2917,-0.2949,-0.3003,-0.3081,-0.3126,-0.3188,-0.3213,-0.3236,-0.3235,-0.321,-0.3178,-0.3168,-0.315,-0.3123,-0.3059,-0.3055,-0.2814,-0.2789,-0.3103,-0.3103,-0.3103,-0.3104,-0.3104,0,-0.2555,-0.26,-0.2716,-0.2749,-0.2811,-0.2909,-0.2965,-0.303,-0.3111,-0.3156,-0.3212,-0.324,-0.3238,-0.3231,-0.3194,-0.3135,-0.3156,-0.3074,-0.305,-0.2828,-0.2806,-0.3068,-0.3064,-0.3102,-0.3103,-0.3103,-0.3103,0,-0.2481,-0.2568,-0.2637,-0.2754,-0.2788,-0.2816,-0.2928,-0.297,-0.3061,-0.312,-0.3139,-0.3229,-0.3222,-0.3217,-0.318,-0.3143,-0.3099,-0.3067,-0.2815,-0.2764,-0.3004,-0.3004,-0.299,-0.2989,-0.2988,-0.2987,-0.2986,0,-0.2455,-0.2483,-0.2596,-0.2624,-0.2668,-0.2732,-0.2782,-0.2911,-0.2957,-0.3103,-0.3118,-0.3165,-0.3178,-0.3142,-0.3055,-0.2983,-0.3055,-0.2734,-0.2679,-0.3017,-0.2995,-0.2996,-0.2997,-0.2371,-0.2365,-0.236,-0.2356,0,-0.2376,-0.2409,-0.2459,-0.2517,-0.2565,-0.2628,-0.27,-0.2744,-0.2895,-0.2958,-0.3048,-0.308,-0.3059,-0.2889,-0.2816,-0.273,-0.2732,-0.264,-0.3027,-0.2466,-0.2437,-0.2415,-0.2435,-0.2314,-0.2319,-0.2322,-0.2324,-0.2326,-0.2284,-0.2288,-0.2346,-0.2389,-0.2448,-0.2489,-0.2482,-0.2576,-0.2639,-0.2669,-0.2838,-0.2783,-0.2784,-0.2534,-0.2437,-0.2333,-0.2503,-0.238,-0.2391,-0.2408,-0.2369,-0.2342,-0.2193,-0.2196,-0.2199,-0.2201,-0.2204,0,-0.2157,-0.2186,-0.2217,-0.2259,-0.2247,-0.2336,-0.24,-0.2334,-0.2334,-0.2398,-0.2418,-0.2193,-0.2124,-0.2124,-0.1914,-0.1917,-0.1852,-0.1833,-0.1737,-0.1779,-0.1816,-0.1744,-0.1403,-0.1401,-0.14,-0.1398,0,0,-0.2089,-0.2068,-0.2088,-0.2031,-0.2058,-0.1972,-0.1966,-0.1898,-0.1877,-0.1774,-0.1739,-0.1908,-0.2029,-0.1696,-0.1643,-0.1495,-0.1604,-0.1409,-0.2041,-0.1963,-0.1998,-0.2116,-0.2052,0,0,0,0,0]},{"header":{"parameterUnit":"m.s-1","parameterCategory":2,"la1":30.2991,"la2":30.254,"lo1":-89.0895,"lo2":-89.0444,"dy":0.0017,"dx":0.0017,"nx":28,"ny":28,"refTime":"2024-04-27T21:00:00:Z","depth":"2","parameterNumber":3,"parameterNumberName":"V-component_of_CURRENTS"},"data":[0,0,0,0,0,0,0,0,0,0,0,0,0,0,0,0,0,0,0,0,0,0,0,0,0,0,0,0,0,0,0,0,0,0,0,0,0,0,0,0,0,0,0,0,0,0,0,0,0,0,0,0,0,0,0,0,0,0,-0.0134,-0.0133,0,-0.0015,-0.0013,-0.0012,0.0064,0.0064,0.0064,0.0064,0.0223,0.0226,0.023,0,0,0,0,0,0,0,0,0,0,0,0,0,-0.0225,-0.0224,-0.0134,-0.0133,-0.0132,-0.0015,-0.0013,-0.0012,0.0064,0.0064,0.0064,0.0065,0.0221,0.0226,0.0231,0,0,0,0,0,0,0,0,0,0,0,0,0,-0.0152,-0.0223,-0.0135,-0.0082,-0.0076,-0.0016,-0.0013,-0.0011,0.0064,0.0064,0.0064,0.0065,0.022,0.0225,0.0231,0.026,0,0,0.025,0.0252,0,0,0,0,0,0,0,0,-0.0156,-0.0148,-0.0091,-0.0085,-0.0079,0.0008,0.0013,0.0081,0.0063,0.0013,0.0064,0.0065,0.0153,0.0164,0.0188,0.0268,0.0275,0.025,0.0254,0.0256,0.0258,0,0,0,0,0,0,0,-0.0161,-0.0153,-0.0085,-0.0089,-0.0082,-0.0039,-0.0029,0.0026,0.0081,0.0017,0.0022,0.0032,0.0157,0.0182,0.0193,0.0277,0.025,0.0255,0.0259,0.0261,0.0412,0.0412,0,0,0,0,0,0,-0.0184,-0.0158,-0.0089,-0.0082,-0.0119,-0.0038,-0.0027,-0.0018,0.008,0.0095,0.0032,0.0035,0.0172,0.0186,0.0198,0.0241,0.0256,0.0262,0.0265,0.0412,0.0412,0.0413,0,0,0,0,0,0,-0.0187,-0.0179,-0.0094,-0.0118,-0.0105,-0.0038,-0.0029,-0.0016,0.0007,0.0091,0.0106,0.0042,0.0173,0.019,0.0248,0.0248,0.0265,0.027,0.0411,0.0412,0.0412,0.0325,0,0,0,0,0,0,-0.019,-0.0181,-0.0186,-0.012,-0.0104,-0.0069,-0.0029,-0.0014,0.0012,0.0018,0.0105,0.012,0.0174,0.0238,0.0253,0.0256,0.0275,0.041,0.0411,0.0412,0.0327,0.0322,0.0318,0,0,0,0,0,-0.0193,-0.0205,-0.0187,-0.0179,-0.0112,-0.007,-0.0058,-0.0007,0.0012,0.0017,0.008,0.0117,0.0254,0.0243,0.0261,0.0265,0.041,0.0411,0.0412,0.0329,0.0323,0.0318,0,0,0,0,0,0,-0.0247,-0.0196,-0.0175,-0.0171,-0.0129,-0.0058,-0.0052,-0.0016,0.0039,0.0044,0.0123,0.0143,0.0192,0.0243,0.0229,0.0313,0.0338,0.0343,0.0269,0.0265,0.026,0.0245,0.028,0,0,0,0,0,-0.0263,-0.0259,-0.02,-0.0199,-0.0182,-0.0119,-0.0097,-0.0062,-0.0005,0.0019,0.0081,0.015,0.0211,0.0247,0.0304,0.0351,0.0401,0.0367,0.0362,0.0358,0.0359,0.0436,0.0439,0.0416,0.0416,0.0416,0,0,-0.0283,-0.0256,-0.0254,-0.021,-0.0174,-0.0157,-0.0104,-0.0079,-0.0058,0.0028,0.0071,0.0133,0.0219,0.0269,0.0297,0.0312,0.0388,0.0359,0.0355,0.0359,0.0438,0.044,0.0442,0.0416,0.0416,0.0416,0,0,-0.0329,-0.03,-0.0314,-0.0282,-0.0238,-0.0194,-0.0192,-0.0125,-0.009,-0.0041,0.0026,0.0089,0.0177,0.0244,0.0288,0.0297,0.0357,0.0313,0.0285,0.0359,0.0361,0.0364,0.0411,0.0418,0.0316,0.0316,0.0316,0,-0.0359,-0.0363,-0.0311,-0.0312,-0.0292,-0.0218,-0.0222,-0.0172,-0.0094,-0.0061,-0.0042,0.0103,0.0168,0.0248,0.0252,0.0286,0.0329,0.0292,0.0351,0.0355,0.0359,0.0407,0.0417,0.0312,0.0312,0.0313,0.0313,0,-0.0409,-0.0409,-0.0414,-0.0389,-0.036,-0.0351,-0.0279,-0.0244,-0.0194,-0.0133,-0.0053,0.0043,0.0132,0.0162,0.0211,0.0277,0.0296,0.0328,0.0357,0.0356,0.0407,0.0418,0.0306,0.0307,0.0308,0.031,0,0,-0.0476,-0.0457,-0.0457,-0.0462,-0.04,-0.0385,-0.0345,-0.0283,-0.0253,-0.0167,-0.0116,-0.0006,0.0054,0.0108,0.0183,0.0252,0.0311,0.0295,0.0301,0.0328,0.0457,0.0507,0.0525,0.0352,0.0354,0.0355,0.0473,0,-0.0531,-0.0572,-0.0527,-0.0543,-0.0556,-0.047,-0.0437,-0.0366,-0.0291,-0.0221,-0.0102,-0.0029,0.0033,0.0073,0.0153,0.028,0.034,0.0275,0.0468,0.0473,0.0507,0.054,0.0452,0.0553,0.0485,0.0487,0.0488,0,-0.0589,-0.061,-0.0652,-0.063,-0.0623,-0.0609,-0.0541,-0.0502,-0.0374,-0.0311,-0.0206,-0.0108,0.0018,0.006,0.0269,0.0223,0.0326,0.0418,0.0426,0.0514,0.0546,0.0551,0.0577,0.0508,0.0506,0.0505,0.0504,0,-0.0677,-0.0688,-0.0731,-0.0723,-0.0685,-0.0673,-0.0641,-0.0535,-0.0498,-0.0368,-0.0318,-0.0153,-0.007,0.0091,0.0291,0.028,0.0516,0.0526,0.0664,0.0668,0.0654,0.0653,0.0658,0.0658,0.0658,0.0657,0.0657,0,-0.0751,-0.0779,-0.0781,-0.0801,-0.0834,-0.0767,-0.0759,-0.0693,-0.0594,-0.0547,-0.0379,-0.0296,-0.0058,0.0114,0.0281,0.0521,0.0513,0.067,0.0714,0.062,0.0615,0.0628,0.0623,0.0662,0.0661,0.066,0.0659,0,-0.0833,-0.0835,-0.0883,-0.0878,-0.088,-0.0902,-0.0858,-0.0843,-0.0732,-0.0665,-0.0627,-0.0398,-0.0159,0.0086,0.0362,0.0507,0.0727,0.0803,0.0669,0.0696,0.0821,0.0811,0.0965,0.0968,0.0971,0.0973,0.0975,0,-0.088,-0.0919,-0.0961,-0.0999,-0.0998,-0.1017,-0.1024,-0.0932,-0.0899,-0.072,-0.0687,-0.0443,-0.024,0.0197,0.0486,0.0797,0.0802,0.0884,0.0859,0.0832,0.0859,0.0844,0.083,0.079,0.0791,0.0791,0.0791,0,-0.0961,-0.0975,-0.1018,-0.1113,-0.1146,-0.1171,-0.1162,-0.1156,-0.103,-0.0937,-0.0753,-0.0576,-0.0143,0.0204,0.0608,0.0767,0.0834,0.0899,0.0926,0.0734,0.068,0.0702,0.0692,0.0792,0.0792,0.0792,0.0792,0.0792,-0.1011,-0.1071,-0.1139,-0.1219,-0.1268,-0.1303,-0.1317,-0.127,-0.1209,-0.1046,-0.0844,-0.0561,-0.019,0.0374,0.0665,0.0905,0.0915,0.0951,0.0945,0.094,0.0907,0.0862,0.0999,0.1,0.1001,0.1002,0.1002,0,-0.1073,-0.1146,-0.1239,-0.1328,-0.1398,-0.1391,-0.1392,-0.1368,-0.1298,-0.1105,-0.0894,-0.05,-0.0079,0.0296,0.0688,0.0955,0.0902,0.097,0.085,0.0847,0.0845,0.0802,0.0869,0.087,0.0871,0.0871,0,0,-0.1109,-0.1218,-0.1275,-0.1419,-0.1477,-0.1527,-0.1523,-0.146,-0.1322,-0.1135,-0.0924,-0.0584,-0.0093,0.0164,0.0493,0.0691,0.0688,0.0687,0.076,0.0573,0.0568,0.0797,0.0725,0,0,0,0,0]}],[{"header":{"parameterUnit":"m.s-1","parameterCategory":2,"la1":30.2991,"la2":30.254,"lo1":-89.0895,"lo2":-89.0444,"dy":0.0017,"dx":0.0017,"nx":28,"ny":28,"refTime":"2024-04-27T21:00:00:Z","depth":"4","parameterNumber":2,"parameterNumberName":"U-component_of_CURRENTS"},"data":[0,0,0,0,0,0,0,0,0,0,0,0,0,0,0,0,0,0,0,0,0,0,0,0,0,0,0,0,0,0,0,0,0,0,0,0,0,0,0,0,0,0,0,0,0,0,0,0,0,0,0,0,0,0,0,0,0,0,-0.1739,-0.174,0,-0.1805,-0.1806,-0.1806,-0.1838,-0.1838,-0.1839,-0.1839,-0.1859,-0.186,-0.186,0,0,0,0,0,0,0,0,0,0,0,0,0,-0.1627,-0.1629,-0.1739,-0.174,-0.1741,-0.1805,-0.1806,-0.1807,-0.1838,-0.1838,-0.1839,-0.1839,-0.1859,-0.186,-0.186,0,0,0,0,0,0,0,0,0,0,0,0,0,-0.1681,-0.163,-0.1739,-0.1766,-0.177,-0.1805,-0.1806,-0.1807,-0.1838,-0.1838,-0.1839,-0.1839,-0.1859,-0.186,-0.186,-0.1858,0,0,-0.1862,-0.1862,0,0,0,0,0,0,0,0,-0.1678,-0.1684,-0.1761,-0.1765,-0.1768,-0.1816,-0.1774,-0.1822,-0.1838,-0.181,-0.1839,-0.1839,-0.1842,-0.1844,-0.1853,-0.1859,-0.186,-0.1862,-0.1862,-0.1862,-0.1863,0,0,0,0,0,0,0,-0.1674,-0.1682,-0.1763,-0.1762,-0.1767,-0.1771,-0.1779,-0.1783,-0.1821,-0.1812,-0.1815,-0.1826,-0.1843,-0.1852,-0.1854,-0.186,-0.1862,-0.1862,-0.1863,-0.1863,-0.1967,-0.1969,0,0,0,0,0,0,-0.1671,-0.1678,-0.1761,-0.1765,-0.1725,-0.1773,-0.1782,-0.1798,-0.1822,-0.1827,-0.1826,-0.1828,-0.1851,-0.1853,-0.1854,-0.1936,-0.1862,-0.1863,-0.1863,-0.1964,-0.1967,-0.197,0,0,0,0,0,0,-0.1669,-0.1678,-0.1758,-0.1725,-0.1735,-0.1775,-0.1793,-0.18,-0.1838,-0.1833,-0.1837,-0.1861,-0.1852,-0.1854,-0.1898,-0.1933,-0.1863,-0.1864,-0.1962,-0.1965,-0.1969,-0.2045,0,0,0,0,0,0,-0.1665,-0.1677,-0.1701,-0.1725,-0.1737,-0.1801,-0.1794,-0.1801,-0.1843,-0.1847,-0.1864,-0.1864,-0.1852,-0.1897,-0.1898,-0.1933,-0.1864,-0.1958,-0.1963,-0.1968,-0.2039,-0.2051,-0.206,0,0,0,0,0,-0.1661,-0.1689,-0.1702,-0.1713,-0.1765,-0.1803,-0.1811,-0.1837,-0.1845,-0.187,-0.1891,-0.1865,-0.1927,-0.19,-0.19,-0.1936,-0.1956,-0.1962,-0.1967,-0.2034,-0.2048,-0.206,0,0,0,0,0,0,-0.1654,-0.1696,-0.171,-0.1751,-0.1786,-0.181,-0.1839,-0.1855,-0.1892,-0.1902,-0.1894,-0.1897,-0.1949,-0.1938,-0.1908,-0.1983,-0.1938,-0.1944,-0.1989,-0.2002,-0.2012,-0.2007,-0.1865,0,0,0,0,0,-0.1664,-0.1696,-0.1734,-0.1768,-0.1789,-0.182,-0.1844,-0.1865,-0.1893,-0.1911,-0.1928,-0.1947,-0.1968,-0.1982,-0.1997,-0.2035,-0.2011,-0.2061,-0.2071,-0.208,-0.208,-0.208,-0.2089,-0.1988,-0.1988,-0.1988,0,0,-0.167,-0.1698,-0.1718,-0.177,-0.1798,-0.1839,-0.1836,-0.1884,-0.1924,-0.1906,-0.1974,-0.1985,-0.1988,-0.2036,-0.2057,-0.2033,-0.2101,-0.2087,-0.2095,-0.2089,-0.2086,-0.2096,-0.2104,-0.1992,-0.1991,-0.199,0,0,-0.169,-0.1727,-0.176,-0.1795,-0.1849,-0.1871,-0.1892,-0.194,-0.1972,-0.2032,-0.2033,-0.2069,-0.2106,-0.2115,-0.2121,-0.2199,-0.2158,-0.2213,-0.2259,-0.226,-0.2267,-0.2274,-0.2265,-0.227,-0.2217,-0.2217,-0.2217,0,-0.1697,-0.1743,-0.1776,-0.1818,-0.1852,-0.189,-0.1933,-0.1973,-0.2033,-0.206,-0.2067,-0.2134,-0.2139,-0.2182,-0.2219,-0.2219,-0.2212,-0.2207,-0.2271,-0.2277,-0.2282,-0.2271,-0.2276,-0.2221,-0.2221,-0.222,-0.222,0,-0.1733,-0.1784,-0.1808,-0.1873,-0.1916,-0.1961,-0.2016,-0.2069,-0.2111,-0.2141,-0.2208,-0.2226,-0.2258,-0.2276,-0.2274,-0.2323,-0.2304,-0.2282,-0.2231,-0.2296,-0.2282,-0.2285,-0.2227,-0.2226,-0.2224,-0.2223,0,0,-0.1702,-0.1812,-0.1821,-0.1864,-0.195,-0.1983,-0.2063,-0.2129,-0.2177,-0.2238,-0.2291,-0.2342,-0.2351,-0.236,-0.2365,-0.2375,-0.2413,-0.2356,-0.2354,-0.2335,-0.2416,-0.2271,-0.226,-0.2405,-0.2406,-0.2407,-0.2394,0,-0.1719,-0.1798,-0.1855,-0.1938,-0.1981,-0.2051,-0.2119,-0.2188,-0.2244,-0.2308,-0.2335,-0.2387,-0.2384,-0.2408,-0.2422,-0.2416,-0.2424,-0.2418,-0.2367,-0.2365,-0.2218,-0.226,-0.2409,-0.2396,-0.2396,-0.2397,-0.2397,0,-0.1723,-0.1778,-0.1859,-0.197,-0.1997,-0.2058,-0.216,-0.2226,-0.2317,-0.2365,-0.2417,-0.244,-0.2484,-0.2465,-0.2478,-0.2478,-0.2459,-0.2444,-0.2443,-0.2278,-0.2226,-0.2317,-0.2402,-0.2401,-0.2401,-0.2401,-0.24,0,-0.1657,-0.1776,-0.1839,-0.1878,-0.201,-0.2067,-0.2136,-0.2238,-0.2293,-0.2396,-0.2438,-0.249,-0.2518,-0.2512,-0.2499,-0.2496,-0.2493,-0.2472,-0.2321,-0.2311,-0.241,-0.2403,-0.2471,-0.2471,-0.2471,-0.2471,-0.2471,0,-0.1627,-0.1681,-0.182,-0.1853,-0.1935,-0.2039,-0.2125,-0.2208,-0.2313,-0.2363,-0.2457,-0.2486,-0.2533,-0.2538,-0.2516,-0.2422,-0.2501,-0.2328,-0.2296,-0.2445,-0.2443,-0.2412,-0.2405,-0.247,-0.247,-0.2471,-0.2471,0,-0.1535,-0.1633,-0.171,-0.1856,-0.1907,-0.1958,-0.2106,-0.2157,-0.228,-0.2347,-0.2382,-0.2487,-0.2487,-0.2506,-0.2494,-0.2417,-0.2358,-0.2306,-0.2471,-0.2449,-0.2173,-0.2171,-0.2124,-0.2119,-0.2114,-0.2111,-0.2107,0,-0.1492,-0.1524,-0.1681,-0.1724,-0.1795,-0.1895,-0.196,-0.2115,-0.2159,-0.2318,-0.2323,-0.2391,-0.2433,-0.23,-0.2342,-0.2276,-0.2249,-0.2213,-0.2187,-0.2162,-0.2137,-0.2142,-0.2146,-0.21,-0.2099,-0.2098,-0.2097,0,-0.1394,-0.1462,-0.1522,-0.1611,-0.1693,-0.1769,-0.1868,-0.1895,-0.2056,-0.2192,-0.2206,-0.221,-0.2207,-0.219,-0.2158,-0.2113,-0.2233,-0.2166,-0.2174,-0.2149,-0.2133,-0.2114,-0.2123,-0.2081,-0.2084,-0.2085,-0.2086,0,-0.1312,-0.1324,-0.1408,-0.1471,-0.1569,-0.1605,-0.1687,-0.1745,-0.1818,-0.2004,-0.2,-0.2083,-0.2182,-0.2104,-0.2075,-0.202,-0.1981,-0.1918,-0.1939,-0.1956,-0.1905,-0.186,-0.1693,0,0,0,0,0,-0.1218,-0.1215,-0.126,-0.132,-0.141,-0.1458,-0.1605,-0.1691,-0.1859,-0.1815,-0.1904,-0.1897,-0.1876,-0.1922,-0.1821,-0.1976,-0.1976,-0.1853,-0.1912,-0.1996,-0.2014,-0.1968,0,0,0,0,0,0,-0.1153,-0.1186,-0.1201,-0.1176,-0.1183,-0.1259,-0.1346,-0.1465,-0.1456,-0.1635,-0.1627,-0.1762,-0.1755,-0.1876,-0.1767,-0.1778,-0.1776,-0.1912,-0.1907,-0.1986,-0.2002,-0.2016,-0.1976,0,0,0,0,0]},{"header":{"parameterUnit":"m.s-1","parameterCategory":2,"la1":30.2991,"la2":30.254,"lo1":-89.0895,"lo2":-89.0444,"dy":0.0017,"dx":0.0017,"nx":28,"ny":28,"refTime":"2024-04-27T21:00:00:Z","depth":"4","parameterNumber":3,"parameterNumberName":"V-component_of_CURRENTS"},"data":[0,0,0,0,0,0,0,0,0,0,0,0,0,0,0,0,0,0,0,0,0,0,0,0,0,0,0,0,0,0,0,0,0,0,0,0,0,0,0,0,0,0,0,0,0,0,0,0,0,0,0,0,0,0,0,0,0,0,-0.0107,-0.0106,0,-0.0027,-0.0026,-0.0025,0.0031,0.0031,0.0031,0.0032,0.0148,0.0151,0.0154,0,0,0,0,0,0,0,0,0,0,0,0,0,-0.018,-0.0179,-0.0107,-0.0106,-0.0105,-0.0027,-0.0026,-0.0024,0.0031,0.0031,0.0031,0.0032,0.0147,0.0151,0.0154,0,0,0,0,0,0,0,0,0,0,0,0,0,-0.0127,-0.0178,-0.0107,-0.0069,-0.0065,-0.0027,-0.0026,-0.0024,0.0031,0.0031,0.0032,0.0032,0.0146,0.015,0.0155,0.0172,0,0,0.0168,0.017,0,0,0,0,0,0,0,0,-0.0131,-0.0125,-0.0076,-0.0072,-0.0067,-0.0009,-0.0009,0.0043,0.0031,-0.0004,0.0032,0.0032,0.0098,0.0106,0.0122,0.0178,0.0183,0.0168,0.0171,0.0173,0.0174,0,0,0,0,0,0,0,-0.0134,-0.0128,-0.0074,-0.0075,-0.007,-0.0045,-0.0038,0.0002,0.0045,-0.0001,0.0003,0.0009,0.0101,0.0118,0.0125,0.0185,0.0168,0.0172,0.0174,0.0176,0.0261,0.026,0,0,0,0,0,0,-0.0149,-0.0131,-0.0076,-0.0071,-0.01,-0.0045,-0.0036,-0.0027,0.0044,0.0055,0.0009,0.0011,0.011,0.012,0.0129,0.015,0.0172,0.0176,0.0179,0.0261,0.0261,0.026,0,0,0,0,0,0,-0.0151,-0.0145,-0.0079,-0.0101,-0.0091,-0.0044,-0.0034,-0.0025,-0.001,0.0051,0.0063,0.0015,0.0111,0.0123,0.0159,0.0155,0.0178,0.0182,0.0261,0.0261,0.026,0.0193,0,0,0,0,0,0,-0.0153,-0.0146,-0.0148,-0.0102,-0.009,-0.0067,-0.0034,-0.0024,-0.0007,-0.0003,0.006,0.0071,0.0112,0.0152,0.0163,0.0161,0.0186,0.0262,0.0261,0.0261,0.0196,0.019,0.0186,0,0,0,0,0,-0.0156,-0.0161,-0.0149,-0.0142,-0.0094,-0.0068,-0.006,-0.0024,-0.0008,-0.0007,0.0037,0.0069,0.0156,0.0155,0.0168,0.0167,0.0262,0.0261,0.0261,0.0198,0.0191,0.0186,0,0,0,0,0,0,-0.0191,-0.0155,-0.014,-0.0133,-0.0108,-0.0059,-0.0057,-0.0031,0.0004,0.0008,0.0068,0.0082,0.011,0.0147,0.0144,0.0189,0.0214,0.0215,0.0162,0.0156,0.0151,0.0144,0.0189,0,0,0,0,0,-0.0202,-0.0198,-0.0159,-0.0156,-0.0146,-0.0103,-0.009,-0.0066,-0.0028,-0.0012,0.0033,0.0079,0.0117,0.0142,0.0179,0.0207,0.025,0.0214,0.0209,0.0204,0.0206,0.0271,0.0272,0.0258,0.0258,0.0258,0,0,-0.0215,-0.0195,-0.0193,-0.0164,-0.0141,-0.0137,-0.0094,-0.008,-0.0072,-0.0005,0.0017,0.0061,0.0119,0.0147,0.0163,0.0179,0.0227,0.0203,0.0199,0.0204,0.027,0.0272,0.0273,0.0258,0.0258,0.0258,0,0,-0.0248,-0.0223,-0.0236,-0.022,-0.0195,-0.0166,-0.0167,-0.0124,-0.0101,-0.0075,-0.0026,0.0016,0.0072,0.0118,0.0147,0.0138,0.0195,0.0146,0.0123,0.0185,0.0187,0.0189,0.0229,0.0235,0.0149,0.0149,0.0149,0,-0.0268,-0.0274,-0.0237,-0.0245,-0.0238,-0.0186,-0.0198,-0.0167,-0.0117,-0.0096,-0.0081,0.0013,0.0059,0.0109,0.0106,0.0128,0.0166,0.0139,0.0179,0.0182,0.0185,0.0226,0.0234,0.0145,0.0146,0.0146,0.0146,0,-0.031,-0.0316,-0.0322,-0.0316,-0.0301,-0.0303,-0.0259,-0.024,-0.0206,-0.0165,-0.0115,-0.0046,0.0014,0.0032,0.0069,0.0115,0.0133,0.016,0.0192,0.0183,0.0226,0.0236,0.0141,0.0142,0.0143,0.0144,0,0,-0.035,-0.0355,-0.0357,-0.0371,-0.0339,-0.0334,-0.0319,-0.0284,-0.0269,-0.0212,-0.018,-0.0107,-0.0057,-0.002,0.0036,0.0093,0.0145,0.0133,0.0138,0.0169,0.027,0.0245,0.0254,0.0181,0.0183,0.0184,0.0284,0,-0.0397,-0.0444,-0.0419,-0.0451,-0.047,-0.0416,-0.0405,-0.0363,-0.0312,-0.0267,-0.0179,-0.0131,-0.008,-0.005,0.0016,0.0119,0.017,0.0115,0.0277,0.0282,0.026,0.0264,0.0189,0.0291,0.0293,0.0295,0.0296,0,-0.0444,-0.0471,-0.0521,-0.0526,-0.0526,-0.053,-0.0497,-0.0479,-0.0394,-0.0349,-0.0273,-0.0198,-0.0101,-0.0063,0.0109,0.0072,0.016,0.0237,0.0243,0.0254,0.0276,0.0309,0.0314,0.0313,0.0312,0.031,0.0309,0,-0.0501,-0.0534,-0.0581,-0.0585,-0.0581,-0.0586,-0.0575,-0.0509,-0.0491,-0.04,-0.0365,-0.0237,-0.017,-0.0036,0.0127,0.0122,0.0315,0.0328,0.0385,0.0384,0.0406,0.0403,0.0438,0.0438,0.0438,0.0437,0.0437,0,-0.0553,-0.0589,-0.0619,-0.0645,-0.0691,-0.0657,-0.067,-0.0632,-0.0571,-0.0543,-0.0416,-0.0357,-0.0158,-0.002,0.0118,0.0284,0.0312,0.0383,0.0413,0.0372,0.0364,0.0412,0.0408,0.0441,0.044,0.044,0.0439,0,-0.0599,-0.0621,-0.0679,-0.0708,-0.0723,-0.0754,-0.0753,-0.0752,-0.068,-0.0639,-0.0612,-0.0438,-0.0254,-0.0058,0.017,0.0263,0.0428,0.0475,0.0408,0.0433,0.0453,0.0444,0.054,0.054,0.054,0.054,0.054,0,-0.0626,-0.0665,-0.0738,-0.0783,-0.0802,-0.0843,-0.0865,-0.0819,-0.0803,-0.0684,-0.0661,-0.0482,-0.035,-0.0042,0.016,0.0416,0.0447,0.0516,0.049,0.0446,0.0466,0.0457,0.0448,0.0541,0.0541,0.0541,0.0541,0,-0.0673,-0.0702,-0.075,-0.0854,-0.0906,-0.0952,-0.0972,-0.0967,-0.0893,-0.0837,-0.069,-0.0512,-0.0305,-0.0056,0.0147,0.033,0.0465,0.0517,0.0517,0.0494,0.0448,0.0466,0.0457,0.0541,0.0541,0.0541,0.0541,0,-0.0699,-0.075,-0.0825,-0.0906,-0.0985,-0.103,-0.1033,-0.0995,-0.0965,-0.0821,-0.0776,-0.0528,-0.0378,-0.01,0.0091,0.0268,0.0301,0.0335,0.0346,0.0348,0.0262,0.0174,0.0211,0,0,0,0,0,-0.072,-0.0782,-0.087,-0.0956,-0.1035,-0.1074,-0.1089,-0.1068,-0.0999,-0.0912,-0.0838,-0.0638,-0.0329,-0.0178,-0.0007,0.0074,0.0317,0.0276,0.0357,0.0542,0.0542,0.0472,0,0,0,0,0,0,-0.0737,-0.0823,-0.0874,-0.0981,-0.1043,-0.1116,-0.1126,-0.108,-0.1008,-0.0915,-0.0743,-0.0629,-0.0321,-0.0432,-0.0014,0.0044,0.011,0.0434,0.0437,0.0542,0.0542,0.0542,0.047,0,0,0,0,0]}]]